Weather History for KSZL - March, 2015

Change the Weather History Date:

Thursday, March 19, 2015

  Actual Average Record
Temperature  
Mean Temperature 38 °F -  
Max Temperature 40 °F 53 °F 77 °F (2012)
Min Temperature 35 °F 33 °F 29 °F (2013)
Degree Days  
Heating Degree Days 28    
Moisture  
Dew Point 36 °F    
Average Humidity 94    
Maximum Humidity 100    
Minimum Humidity 87    
Precipitation  
Precipitation 0.41 in - - ()
Sea Level Pressure  
Sea Level Pressure 30.11 in    
Wind  
Wind Speed 6 mph (ENE)    
Max Wind Speed 12 mph    
Max Gust Speed -    
Visibility 7 miles    
Events Rain    
Averages and records for this station are not official NWS values.
T = Trace of Precipitation, MM = Missing Value Source: NWS Daily Summary

Daily Weather History Graph

Daily Weather History Graph

Search for Another Location

Airport or City:

Trip Planner

Search our weather history database for the weather conditions in past years. The results will help you decide how hot, cold, wet, or windy it might be!

Date:

Astronomy

Mar. 19, 2015 Rise Set
Actual Time 7:19 AM CDT 7:24 PM CDT
Civil Twilight 6:53 AM CDT 7:51 PM CDT
Nautical Twilight 6:22 AM CDT 8:22 PM CDT
Astronomical Twilight 5:50 AM CDT 8:54 PM CDT
Moon 6:43 AM CDT (3/19) 6:54 PM CDT (3/19)
Length of Visible Light 12h 58m
Length of Day
12h 05m
Waning Crescent, 1% of the Moon is Illuminated
Mar 19
Waning Crescent
Mar 20
New
Mar 27
First Quarter
Apr 4
Full
Apr 11
Last Quarter

Hourly Weather History & Observations

Time (CDT) Temp. Windchill Dew Point Humidity Pressure Visibility Wind Dir Wind Speed Gust Speed Precip Events Conditions
12:55 AM 35.6 °F 28.0 °F 34.0 °F 94% 30.13 in 5.0 mi East 10.4 mph - 0.06 in Rain Light Rain
1:20 AM 35.6 °F 27.5 °F 33.8 °F 93% 30.10 in 5.0 mi ESE 11.5 mph - N/A Rain Light Rain
1:55 AM 35.4 °F 29.0 °F 33.8 °F 94% 30.13 in 6.0 mi East 8.1 mph - 0.05 in Rain Light Rain
2:55 AM 35.4 °F 28.4 °F 34.2 °F 95% 30.13 in 6.0 mi East 9.2 mph - 0.07 in Rain Light Rain
3:57 AM 35.8 °F 30.1 °F 34.2 °F 94% 30.12 in 6.0 mi East 6.9 mph - 0.03 in Rain Light Rain
4:55 AM 35.8 °F 30.1 °F 34.2 °F 94% 30.12 in 5.0 mi ESE 6.9 mph - 0.07 in Rain Light Rain
5:56 AM 35.8 °F 28.8 °F 34.5 °F 95% 30.10 in 5.0 mi East 9.2 mph - 0.04 in   Overcast
6:52 AM 35.6 °F 29.9 °F 33.8 °F 93% 30.09 in 6.0 mi ESE 6.9 mph - N/A Rain Light Rain
6:56 AM 36.1 °F 31.4 °F 34.5 °F 94% 30.12 in 9.0 mi East 5.8 mph - 0.00 in Rain Light Rain
7:58 AM 36.3 °F 30.8 °F 35.1 °F 95% 30.13 in 8.0 mi SE 6.9 mph - 0.01 in   Overcast
8:58 AM 36.7 °F 32.9 °F 35.1 °F 94% 30.14 in 9.0 mi SE 4.6 mph - N/A   Light Drizzle
9:58 AM 37.4 °F 33.8 °F 35.4 °F 93% 30.14 in 3.0 mi ESE 4.6 mph - 0.00 in   Light Drizzle
10:58 AM 37.9 °F 33.5 °F 36.3 °F 94% 30.13 in 5.0 mi ESE 5.8 mph - 0.00 in   Overcast
11:58 AM 38.5 °F 34.1 °F 36.5 °F 93% 30.13 in 6.0 mi East 5.8 mph - N/A   Overcast
12:58 PM 38.5 °F 36.1 °F 36.5 °F 93% 30.13 in 5.0 mi East 3.5 mph - N/A   Overcast
1:06 PM 39.2 °F - 37.4 °F 93% 30.10 in 2.0 mi ESE 2.3 mph - N/A   Drizzle
1:58 PM 39.0 °F 36.8 °F 37.4 °F 94% 30.11 in 3.0 mi ENE 3.5 mph - 0.00 in   Overcast
2:16 PM 39.2 °F 37.0 °F 37.4 °F 93% 30.07 in 7.0 mi ENE 3.5 mph - N/A   Light Drizzle
2:58 PM 39.6 °F - 37.2 °F 91% 30.10 in 7.0 mi North 2.3 mph - 0.00 in   Overcast
3:08 PM 39.2 °F - 35.6 °F 87% 30.07 in 10.0 mi Calm Calm - N/A Rain Light Rain
3:58 PM 40.1 °F 38.0 °F 37.4 °F 90% 30.09 in 5.0 mi NNE 3.5 mph - 0.01 in   Light Drizzle
4:58 PM 40.1 °F 36.9 °F 37.8 °F 91% 30.09 in 5.0 mi North 4.6 mph - 0.02 in Rain Light Rain
5:58 PM 40.1 °F 36.9 °F 37.9 °F 92% 30.10 in 6.0 mi NNE 4.6 mph - 0.02 in Rain Light Rain
6:58 PM 39.7 °F - 37.9 °F 93% 30.11 in 10.0 mi NE 1.2 mph - 0.01 in   Light Drizzle
7:58 PM 39.7 °F - 38.1 °F 94% 30.11 in 10.0 mi North 2.3 mph - 0.00 in   Overcast
8:37 PM 39.2 °F - 39.2 °F 100% 30.08 in 10.0 mi Calm Calm - N/A   Overcast
8:42 PM 39.2 °F - 39.2 °F 100% 30.08 in 10.0 mi Calm Calm - N/A   Light Drizzle
8:58 PM 39.7 °F - 38.3 °F 95% 30.11 in 8.0 mi Calm Calm - 0.01 in Rain Light Rain
9:58 PM 39.2 °F 35.9 °F 39.2 °F 100% 30.13 in 10.0 mi NNW 4.6 mph - 0.01 in   Overcast
10:58 PM 39.2 °F 35.9 °F 39.2 °F 100% 30.15 in 10.0 mi NW 4.6 mph - N/A   Overcast
11:58 PM 37.9 °F 35.5 °F 37.2 °F 97% 30.15 in 10.0 mi NNW 3.5 mph - N/A   Overcast